Location: *
(47.6569°N, 7.4256°E)
Time: 02:54:10
(UTC+00:00)

NOSS 3-1 (C) - Pass Details

Date: 14 December 2019
Orbit: 763 x 1445 km, 63.4° (Epoch: 16 January)

Event Time Altitude Azimuth Distance (km) Brightness Sun altitude
Rises 18:28:57 0° 318° (NW) 3,930 7.1 -27.5°
Reaches altitude 10° 18:31:28 10° 318° (NW) 3,061 6.5 -27.9°
Maximum altitude 18:38:57 79° 233° (SW) 1,317 4.1 -29.2°
Enters shadow 18:43:02 35° 153° (SSE) 2,055 4.9 -29.9°
